Starlink 31146

operational
NORAD ID: 58769 Int'l Des: 2024-011 Owner: SPXS Country: US Constellation: starlink
LEOCIRCULAR

Starlink 31146について

説明を読み込み中...

リアルタイム位置

3D地球を読み込み中...

次回通過

高度履歴

Altitude vs Time

uPlot chart will show altitude changes over time

軌道要素

1 58769U 24011E 26034.54567873 .00002783 00000-0 10611-3 0 9995
2 58769 53.1586 172.2053 0001278 86.8055 273.3092 15.30186233115044
Epoch: Feb 3, 2026 • Age: 23 hours

現在のステータス

高度 493.9 km
速度 7.62 km/s
衛星直下点 -51.42°S, 139.88°E
打ち上げ日 Jan 14, 2024
運用期間 2 years
タイプ internet

技術仕様

分類 Payload
質量 730.00 kg
乾燥質量 700.00 kg
総質量 730.00 kg
長さ 0.30 m
直径 4.10 m
スパン 29.00 m
形状 Box + pan
製造者 SPXS
バスタイプ Starlink V2M
フェーズステータス In Orbit
所有者/国 SPXS/US

大規模コンステレーション

Loading constellations...